Simultaneous Nadir Overpasses (SNOs) Predictions

Prediction of SNOs between AQUA and NOAA-19 Satellite Orbit:

Table of predicted SNOs for the next 14.0 days since TLE Epoch: 8/26/2023
Index Date (AQUA) Time (AQUA) Lat,Lon (AQUA) SZA (AQUA ) Date (NOAA-19) Time (NOAA-19) Lat,Lon (NOAA-19) SZA (NOAA-19 ) Distance(km) Time Diff (sec)
1 08/27/2023 03:57:22 75.90, 113.64 65.78 08/27/2023 03:56:15 75.85, 111.18 65.85 67.12 67
2 08/27/2023 04:46:54 -76.30, -79.99 113.77 08/27/2023 04:47:10 -76.28, -80.00 113.78 1.83 16
3 08/29/2023 09:28:40 -76.26,-150.28 113.04 08/29/2023 09:28:35 -76.27,-150.35 113.03 1.80 5
4 08/29/2023 10:18:13 76.66, 16.01 67.42 08/29/2023 10:19:20 76.65, 18.45 67.32 62.81 67
5 08/31/2023 14:10:26 -76.25, 139.32 112.27 08/31/2023 14:10:00 -76.25, 139.28 112.28 1.51 26
6 08/31/2023 14:59:52 76.32, -53.25 67.82 08/31/2023 15:00:52 76.31, -53.19 67.80 1.92 60
7 09/02/2023 18:52:11 -76.23, 68.99 111.51 09/02/2023 18:51:25 -76.21, 68.87 111.52 3.50 46
8 09/02/2023 19:41:37 76.30,-123.59 68.58 09/02/2023 19:42:17 76.27,-123.63 68.55 3.09 40
9 09/04/2023 23:33:56 -76.23, -1.44 110.71 09/04/2023 23:32:49 -76.22, -1.39 110.71 2.10 67
10 09/05/2023 00:23:21 76.26, 166.13 69.34 09/05/2023 00:23:41 76.27, 166.08 69.35 1.94 20
11 09/07/2023 04:15:30 -75.74, -70.30 110.44 09/07/2023 04:14:25 -75.68, -73.61 110.37 91.24 65
12 09/07/2023 05:05:05 76.25, 95.76 70.13 09/07/2023 05:05:05 76.26, 95.77 70.15 1.60 0



Historial Predications of SNOs between AQUA and NOAA-19
